Time,TemperatureF,DewpointF,PressureIn,WindDirection,WindDirectionDegrees,WindSpeedMPH,WindSpeedGustMPH,Humidity,HourlyPrecipIn,Conditions,Clouds,dailyrainin,SoftwareType,DateUTC
2013-04-08 00:03:00,66.2,65.7,29.33,NE,45,2.0,2.0,98,0.00,,,0.00,meteohub,2013-04-08 10:03:00,
2013-04-08 00:08:00,66.4,65.5,29.33,NE,45,2.0,2.0,97,0.00,,,0.00,meteohub,2013-04-08 10:08:00,
2013-04-08 00:13:00,66.6,65.3,29.33,NE,45,2.0,2.0,96,0.00,,,0.00,meteohub,2013-04-08 10:13:00,
2013-04-08 00:18:00,66.7,65.5,29.33,NE,45,2.0,2.0,96,0.00,,,0.00,meteohub,2013-04-08 10:18:00,
2013-04-08 00:23:00,66.9,65.1,29.32,NE,45,2.0,2.0,94,0.00,,,0.00,meteohub,2013-04-08 10:23:00,
2013-04-08 00:28:00,67.1,64.9,29.32,East,90,2.0,2.0,93,0.00,,,0.00,meteohub,2013-04-08 10:28:00,
2013-04-08 00:33:00,67.3,64.6,29.32,East,90,2.0,2.0,91,0.00,,,0.00,meteohub,2013-04-08 10:33:00,
2013-04-08 00:38:00,67.5,64.4,29.32,East,90,2.0,2.0,90,0.00,,,0.00,meteohub,2013-04-08 10:38:00,
2013-04-08 00:43:00,67.6,64.2,29.32,East,90,2.0,2.0,89,0.00,,,0.00,meteohub,2013-04-08 10:43:00,
2013-04-08 00:48:00,67.6,64.2,29.32,North,0,2.0,2.0,89,0.00,,,0.00,meteohub,2013-04-08 10:48:00,
2013-04-08 00:53:00,67.6,64.0,29.32,NE,45,2.0,2.0,88,0.00,,,0.00,meteohub,2013-04-08 10:53:00,
2013-04-08 00:58:00,67.8,63.9,29.31,NE,45,1.0,2.0,87,0.00,,,0.00,meteohub,2013-04-08 10:58:00,
2013-04-08 01:03:00,67.8,63.9,29.31,NE,45,1.0,2.0,87,0.00,,,0.00,meteohub,2013-04-08 11:03:00,
2013-04-08 01:08:00,67.6,63.3,29.31,NE,45,1.0,2.0,86,0.00,,,0.00,meteohub,2013-04-08 11:08:00,
2013-04-08 01:13:00,67.5,63.1,29.30,East,90,1.0,1.0,86,0.00,,,0.00,meteohub,2013-04-08 11:13:00,
2013-04-08 01:18:00,67.1,62.8,29.30,East,90,1.0,2.0,86,0.00,,,0.00,meteohub,2013-04-08 11:18:00,
2013-04-08 01:23:00,66.9,62.6,29.30,East,90,2.0,2.0,86,0.00,,,0.00,meteohub,2013-04-08 11:23:00,
2013-04-08 01:28:00,66.4,62.1,29.30,NE,45,2.0,2.0,86,0.00,,,0.00,meteohub,2013-04-08 11:28:00,
2013-04-08 01:33:00,66.0,62.4,29.30,NE,45,2.0,2.0,88,0.00,,,0.00,meteohub,2013-04-08 11:33:00,
2013-04-08 01:38:00,65.7,62.2,29.30,NE,45,2.0,2.0,89,0.00,,,0.00,meteohub,2013-04-08 11:38:00,
2013-04-08 01:43:00,65.3,62.2,29.31,NE,45,2.0,2.0,90,0.00,,,0.00,meteohub,2013-04-08 11:43:00,
2013-04-08 01:49:00,65.1,62.4,29.30,NE,45,2.0,2.0,91,0.00,,,0.00,meteohub,2013-04-08 11:49:00,
2013-04-08 01:54:00,64.9,62.6,29.30,NE,45,1.0,2.0,92,0.00,,,0.00,meteohub,2013-04-08 11:54:00,
2013-04-08 01:59:00,64.8,62.4,29.29,NE,45,1.0,2.0,92,0.00,,,0.00,meteohub,2013-04-08 11:59:00,
2013-04-08 02:04:00,64.4,62.1,29.29,NE,45,1.0,2.0,92,0.00,,,0.00,meteohub,2013-04-08 12:04:00,
2013-04-08 02:09:00,64.4,62.4,29.29,NE,45,1.0,2.0,93,0.00,,,0.00,meteohub,2013-04-08 12:09:00,
2013-04-08 02:14:00,64.2,62.8,29.29,NE,45,2.0,2.0,95,0.00,,,0.00,meteohub,2013-04-08 12:14:00,
2013-04-08 02:19:00,64.0,62.6,29.29,NE,45,2.0,2.0,95,0.00,,,0.00,meteohub,2013-04-08 12:19:00,
2013-04-08 02:24:00,63.9,62.4,29.29,NE,45,2.0,2.0,95,0.00,,,0.00,meteohub,2013-04-08 12:24:00,
2013-04-08 02:29:00,63.5,62.1,29.29,NE,45,1.0,2.0,95,0.00,,,0.00,meteohub,2013-04-08 12:29:00,
2013-04-08 02:34:00,63.1,61.7,29.28,NE,45,2.0,2.0,95,0.00,,,0.00,meteohub,2013-04-08 12:34:00,
2013-04-08 02:40:00,63.0,61.5,29.28,NE,45,2.0,2.0,95,0.00,,,0.00,meteohub,2013-04-08 12:40:00,
2013-04-08 02:45:00,62.8,61.0,29.28,North,0,1.0,2.0,94,0.00,,,0.00,meteohub,2013-04-08 12:45:00,
2013-04-08 02:50:00,62.8,61.0,29.28,North,0,2.0,2.0,94,0.00,,,0.00,meteohub,2013-04-08 12:50:00,
2013-04-08 02:55:00,62.6,60.8,29.28,NE,45,2.0,2.0,94,0.00,,,0.00,meteohub,2013-04-08 12:55:00,
2013-04-08 03:00:00,62.4,60.6,29.27,North,0,1.0,2.0,94,0.00,,,0.00,meteohub,2013-04-08 13:00:00,
2013-04-08 03:05:00,62.2,60.4,29.27,NE,45,0.0,2.0,94,0.00,,,0.00,meteohub,2013-04-08 13:05:00,
2013-04-08 03:10:00,62.1,60.6,29.28,NE,45,1.0,2.0,95,0.00,,,0.00,meteohub,2013-04-08 13:10:00,
2013-04-08 03:15:00,62.1,61.0,29.27,NE,45,2.0,2.0,96,0.00,,,0.00,meteohub,2013-04-08 13:15:00,
2013-04-08 03:20:00,62.1,61.0,29.27,NE,45,2.0,2.0,96,0.00,,,0.00,meteohub,2013-04-08 13:20:00,
2013-04-08 03:25:00,62.2,61.3,29.27,NE,45,2.0,2.0,97,0.00,,,0.00,meteohub,2013-04-08 13:25:00,
2013-04-08 03:30:00,62.4,61.9,29.27,NE,45,2.0,2.0,98,0.00,,,0.00,meteohub,2013-04-08 13:30:00,
2013-04-08 03:35:00,62.8,62.2,29.27,NE,45,2.0,3.0,98,0.00,,,0.00,meteohub,2013-04-08 13:35:00,
2013-04-08 03:40:00,63.1,62.2,29.27,North,0,2.0,3.0,97,0.00,,,0.00,meteohub,2013-04-08 13:40:00,
2013-04-08 03:45:00,63.1,62.1,29.27,North,0,2.0,3.0,96,0.00,,,0.00,meteohub,2013-04-08 13:45:00,
2013-04-08 03:50:00,63.3,62.2,29.27,North,0,2.0,2.0,96,0.00,,,0.00,meteohub,2013-04-08 13:50:00,
2013-04-08 03:55:00,63.3,61.9,29.27,North,0,2.0,2.0,95,0.00,,,0.00,meteohub,2013-04-08 13:55:00,
2013-04-08 04:00:00,63.5,62.1,29.27,North,0,2.0,2.0,95,0.00,,,0.00,meteohub,2013-04-08 14:00:00,
2013-04-08 04:05:00,63.7,61.9,29.27,North,0,2.0,2.0,94,0.00,,,0.00,meteohub,2013-04-08 14:05:00,
2013-04-08 04:10:00,64.2,61.9,29.27,North,0,2.0,2.0,92,0.00,,,0.00,meteohub,2013-04-08 14:10:00,
2013-04-08 04:16:00,64.8,61.5,29.28,NE,45,2.0,3.0,89,0.00,,,0.00,meteohub,2013-04-08 14:16:00,
2013-04-08 04:21:00,65.1,61.9,29.27,NE,45,2.0,3.0,89,0.00,,,0.00,meteohub,2013-04-08 14:21:00,
2013-04-08 04:26:00,65.3,62.2,29.27,NE,45,2.0,3.0,90,0.00,,,0.00,meteohub,2013-04-08 14:26:00,
2013-04-08 04:31:00,65.3,62.1,29.27,East,90,2.0,3.0,89,0.00,,,0.00,meteohub,2013-04-08 14:31:00,
2013-04-08 04:36:00,65.5,61.9,29.28,NE,45,2.0,3.0,88,0.00,,,0.00,meteohub,2013-04-08 14:36:00,
2013-04-08 04:41:00,65.5,61.9,29.28,NE,45,2.0,2.0,88,0.00,,,0.00,meteohub,2013-04-08 14:41:00,
2013-04-08 04:46:00,65.5,61.5,29.28,NE,45,2.0,2.0,87,0.00,,,0.00,meteohub,2013-04-08 14:46:00,
2013-04-08 04:51:00,65.5,61.5,29.28,NE,45,2.0,2.0,87,0.00,,,0.00,meteohub,2013-04-08 14:51:00,
2013-04-08 04:56:00,65.1,61.2,29.28,NE,45,2.0,2.0,87,0.00,,,0.00,meteohub,2013-04-08 14:56:00,
2013-04-08 05:01:00,64.6,60.3,29.28,NE,45,1.0,2.0,86,0.00,,,0.00,meteohub,2013-04-08 15:01:00,
2013-04-08 05:07:00,64.0,59.7,29.29,NE,45,2.0,2.0,86,0.00,,,0.00,meteohub,2013-04-08 15:07:00,
2013-04-08 05:12:00,63.7,59.7,29.28,NE,45,2.0,2.0,87,0.00,,,0.00,meteohub,2013-04-08 15:12:00,
2013-04-08 05:17:00,63.3,59.7,29.29,NE,45,1.0,2.0,88,0.00,,,0.00,meteohub,2013-04-08 15:17:00,
2013-04-08 05:22:00,63.1,59.9,29.29,NE,45,2.0,2.0,89,0.00,,,0.00,meteohub,2013-04-08 15:22:00,
2013-04-08 05:27:00,63.0,59.7,29.29,NE,45,1.0,2.0,89,0.00,,,0.00,meteohub,2013-04-08 15:27:00,
2013-04-08 05:32:00,63.0,59.9,29.29,NE,45,2.0,2.0,90,0.00,,,0.00,meteohub,2013-04-08 15:32:00,
2013-04-08 05:37:00,62.8,59.7,29.29,NE,45,2.0,2.0,90,0.00,,,0.00,meteohub,2013-04-08 15:37:00,
2013-04-08 05:42:00,63.0,60.3,29.29,North,0,2.0,2.0,91,0.00,,,0.00,meteohub,2013-04-08 15:42:00,
2013-04-08 05:47:00,63.0,60.3,29.30,NE,45,2.0,2.0,91,0.00,,,0.00,meteohub,2013-04-08 15:47:00,
2013-04-08 05:52:00,63.0,60.3,29.30,NE,45,2.0,2.0,91,0.00,,,0.00,meteohub,2013-04-08 15:52:00,
2013-04-08 05:57:00,63.1,60.4,29.30,NE,45,2.0,2.0,91,0.00,,,0.00,meteohub,2013-04-08 15:57:00,
2013-04-08 06:02:00,63.3,60.6,29.29,NE,45,1.0,2.0,91,0.00,,,0.00,meteohub,2013-04-08 16:02:00,
2013-04-08 06:06:00,63.7,61.0,29.29,NE,45,2.0,2.0,91,0.00,,,0.00,meteohub,2013-04-08 16:06:00,
2013-04-08 06:12:00,64.0,61.0,29.30,NE,45,2.0,2.0,90,0.00,,,0.00,meteohub,2013-04-08 16:12:00,
2013-04-08 06:17:00,64.2,61.2,29.30,NE,45,2.0,2.0,90,0.00,,,0.00,meteohub,2013-04-08 16:17:00,
2013-04-08 06:22:00,64.4,61.2,29.31,NE,45,2.0,2.0,89,0.00,,,0.00,meteohub,2013-04-08 16:22:00,
2013-04-08 06:27:00,64.8,60.8,29.31,NE,45,3.0,3.0,87,0.00,,,0.00,meteohub,2013-04-08 16:27:00,
2013-04-08 06:32:00,65.1,60.8,29.30,East,90,2.0,3.0,86,0.00,,,0.00,meteohub,2013-04-08 16:32:00,
2013-04-08 06:37:00,65.7,60.6,29.30,NE,45,3.0,3.0,84,0.00,,,0.00,meteohub,2013-04-08 16:37:00,
2013-04-08 06:42:00,66.0,60.6,29.31,NE,45,2.0,3.0,83,0.00,,,0.00,meteohub,2013-04-08 16:42:00,
2013-04-08 06:47:00,66.2,60.6,29.31,NE,45,3.0,3.0,82,0.00,,,0.00,meteohub,2013-04-08 16:47:00,
2013-04-08 06:52:00,66.6,61.0,29.31,NE,45,2.0,3.0,82,0.00,,,0.00,meteohub,2013-04-08 16:52:00,
2013-04-08 06:57:00,66.9,61.2,29.31,NE,45,2.0,3.0,82,0.00,,,0.00,meteohub,2013-04-08 16:57:00,
2013-04-08 07:02:00,67.1,61.2,29.31,NE,45,2.0,3.0,81,0.00,,,0.00,meteohub,2013-04-08 17:02:00,
2013-04-08 07:07:00,67.3,61.2,29.31,NE,45,2.0,2.0,81,0.00,,,0.00,meteohub,2013-04-08 17:07:00,
2013-04-08 07:12:00,67.5,61.3,29.31,NE,45,2.0,2.0,81,0.00,,,0.00,meteohub,2013-04-08 17:12:00,
2013-04-08 07:17:00,68.2,62.1,29.31,NE,45,2.0,2.0,81,0.00,,,0.00,meteohub,2013-04-08 17:17:00,
2013-04-08 07:22:00,68.9,62.8,29.32,North,-999,-999.0,2.0,81,0.00,,,0.00,meteohub,2013-04-08 17:22:00,
2013-04-08 07:27:00,70.0,63.1,29.32,North,-999,-999.0,2.0,79,0.00,,,0.00,meteohub,2013-04-08 17:27:00,
2013-04-08 07:32:00,70.9,63.3,29.32,North,-999,-999.0,2.0,77,0.00,,,0.00,meteohub,2013-04-08 17:32:00,
2013-04-08 07:37:00,71.8,63.5,29.32,NW,315,2.0,-999.0,75,0.00,,,0.00,meteohub,2013-04-08 17:37:00,
2013-04-08 07:42:00,72.5,63.7,29.32,North,0,2.0,2.0,74,0.00,,,0.00,meteohub,2013-04-08 17:42:00,
2013-04-08 07:47:00,73.6,64.0,29.32,NW,315,1.0,2.0,72,0.00,,,0.00,meteohub,2013-04-08 17:47:00,
2013-04-08 07:52:00,74.5,64.0,29.32,NW,315,2.0,2.0,70,0.00,,,0.00,meteohub,2013-04-08 17:52:00,
2013-04-08 07:58:00,75.2,64.8,29.32,NW,315,0.0,2.0,70,0.00,,,0.00,meteohub,2013-04-08 17:58:00,
2013-04-08 08:03:00,76.5,64.2,29.32,West,270,2.0,2.0,66,0.00,,,0.00,meteohub,2013-04-08 18:03:00,
2013-04-08 08:08:00,76.5,63.3,29.32,NW,315,2.0,2.0,64,0.00,,,0.00,meteohub,2013-04-08 18:08:00,
2013-04-08 08:13:00,76.5,63.3,29.32,SW,225,2.0,3.0,64,0.00,,,0.00,meteohub,2013-04-08 18:13:00,
2013-04-08 08:18:00,76.1,63.0,29.33,West,270,2.0,3.0,64,0.00,,,0.00,meteohub,2013-04-08 18:18:00,
2013-04-08 08:23:00,76.6,63.5,29.33,NW,315,2.0,3.0,64,0.00,,,0.00,meteohub,2013-04-08 18:23:00,
2013-04-08 08:28:00,76.3,63.1,29.32,West,270,2.0,3.0,64,0.00,,,0.00,meteohub,2013-04-08 18:28:00,
2013-04-08 08:33:00,76.1,63.0,29.32,West,270,2.0,4.0,64,0.00,,,0.00,meteohub,2013-04-08 18:33:00,
2013-04-08 08:38:00,76.1,63.0,29.33,SW,225,2.0,4.0,64,0.00,,,0.00,meteohub,2013-04-08 18:38:00,
2013-04-08 08:43:00,76.1,62.6,29.32,West,270,4.0,4.0,63,0.00,,,0.00,meteohub,2013-04-08 18:43:00,
2013-04-08 08:48:00,76.1,63.0,29.33,SW,225,2.0,5.0,64,0.00,,,0.00,meteohub,2013-04-08 18:48:00,
2013-04-08 08:53:00,76.5,63.3,29.33,NW,315,2.0,5.0,64,0.00,,,0.00,meteohub,2013-04-08 18:53:00,
2013-04-08 08:58:00,76.6,62.6,29.33,SE,135,2.0,5.0,62,0.00,,,0.00,meteohub,2013-04-08 18:58:00,
2013-04-08 09:03:00,77.5,64.8,29.33,NW,315,2.0,5.0,65,0.00,,,0.00,meteohub,2013-04-08 19:03:00,
2013-04-08 09:08:00,78.6,65.8,29.33,West,270,2.0,5.0,65,0.00,,,0.00,meteohub,2013-04-08 19:08:00,
2013-04-08 09:13:00,79.3,66.6,29.33,West,270,2.0,4.0,65,0.00,,,0.00,meteohub,2013-04-08 19:13:00,
2013-04-08 09:18:00,79.3,66.0,29.33,NW,315,2.0,4.0,64,0.00,,,0.00,meteohub,2013-04-08 19:18:00,
2013-04-08 09:23:00,79.5,65.3,29.32,SE,135,2.0,4.0,62,0.00,,,0.00,meteohub,2013-04-08 19:23:00,
2013-04-08 09:28:00,79.5,65.8,29.32,NW,315,4.0,5.0,63,0.00,,,0.00,meteohub,2013-04-08 19:28:00,
2013-04-08 09:33:00,79.5,65.8,29.32,NW,315,2.0,5.0,63,0.00,,,0.00,meteohub,2013-04-08 19:33:00,
2013-04-08 09:38:00,80.1,66.4,29.32,North,0,1.0,5.0,63,0.00,,,0.00,meteohub,2013-04-08 19:38:00,
2013-04-08 09:43:00,80.1,66.4,29.32,SW,225,3.0,4.0,63,0.00,,,0.00,meteohub,2013-04-08 19:43:00,
2013-04-08 09:48:00,78.6,64.9,29.31,NW,315,4.0,4.0,63,0.00,,,0.00,meteohub,2013-04-08 19:48:00,
2013-04-08 09:53:00,77.4,65.1,29.31,West,270,3.0,4.0,66,0.00,,,0.00,meteohub,2013-04-08 19:53:00,
2013-04-08 09:58:00,77.2,64.9,29.32,SW,225,4.0,5.0,66,0.00,,,0.00,meteohub,2013-04-08 19:58:00,
2013-04-08 10:03:00,76.5,64.8,29.32,NE,45,5.0,5.0,67,0.00,,,0.00,meteohub,2013-04-08 20:03:00,
2013-04-08 10:08:00,75.7,64.4,29.31,West,270,2.0,6.0,68,0.00,,,0.00,meteohub,2013-04-08 20:08:00,
2013-04-08 10:13:00,75.7,65.3,29.31,East,90,2.0,6.0,70,0.00,,,0.00,meteohub,2013-04-08 20:13:00,
2013-04-08 10:18:00,76.6,65.7,29.32,NW,315,3.0,6.0,69,0.00,,,0.00,meteohub,2013-04-08 20:18:00,
2013-04-08 10:23:00,76.6,64.9,29.31,NW,315,4.0,6.0,67,0.00,,,0.00,meteohub,2013-04-08 20:23:00,
2013-04-08 10:28:00,76.8,64.9,29.31,West,270,8.0,8.0,67,0.00,,,0.00,meteohub,2013-04-08 20:28:00,
2013-04-08 10:33:00,76.1,65.1,29.31,NW,315,3.0,8.0,69,0.00,,,0.00,meteohub,2013-04-08 20:33:00,
2013-04-08 10:38:00,76.6,65.7,29.31,West,270,3.0,8.0,69,0.00,,,0.00,meteohub,2013-04-08 20:38:00,
2013-04-08 10:43:00,78.1,66.2,29.31,West,270,4.0,8.0,67,0.00,,,0.00,meteohub,2013-04-08 20:43:00,
2013-04-08 10:48:00,77.4,65.1,29.31,West,270,6.0,6.0,66,0.00,,,0.00,meteohub,2013-04-08 20:48:00,
2013-04-08 10:53:00,76.8,65.5,29.31,SE,135,3.0,5.0,68,0.00,,,0.00,meteohub,2013-04-08 20:53:00,
2013-04-08 10:58:00,76.3,64.9,29.31,SW,225,4.0,6.0,68,0.00,,,0.00,meteohub,2013-04-08 20:58:00,
2013-04-08 11:03:00,75.9,64.9,29.30,NW,315,5.0,6.0,69,0.00,,,0.00,meteohub,2013-04-08 21:03:00,
2013-04-08 11:08:00,76.1,64.8,29.30,West,270,5.0,6.0,68,0.00,,,0.00,meteohub,2013-04-08 21:08:00,
2013-04-08 11:14:00,75.4,64.6,29.30,North,0,2.0,7.0,69,0.00,,,0.00,meteohub,2013-04-08 21:14:00,
2013-04-08 11:19:00,75.9,64.9,29.30,NW,315,2.0,7.0,69,0.00,,,0.00,meteohub,2013-04-08 21:19:00,
2013-04-08 11:24:00,76.6,65.7,29.30,NW,315,2.0,8.0,69,0.00,,,0.00,meteohub,2013-04-08 21:24:00,
2013-04-08 11:29:00,77.0,65.7,29.29,SW,225,2.0,8.0,68,0.00,,,0.00,meteohub,2013-04-08 21:29:00,
2013-04-08 11:34:00,76.8,65.8,29.29,West,270,2.0,8.0,69,0.00,,,0.00,meteohub,2013-04-08 21:34:00,
2013-04-08 11:39:00,78.1,66.2,29.29,West,270,2.0,8.0,67,0.00,,,0.00,meteohub,2013-04-08 21:39:00,
2013-04-08 11:44:00,78.3,65.1,29.29,West,270,2.0,8.0,64,0.00,,,0.00,meteohub,2013-04-08 21:44:00,
2013-04-08 11:50:00,77.4,65.1,29.28,NW,315,8.0,8.0,66,0.00,,,0.00,meteohub,2013-04-08 21:50:00,
2013-04-08 11:55:00,76.6,64.9,29.28,West,270,7.0,7.0,67,0.00,,,0.00,meteohub,2013-04-08 21:55:00,
2013-04-08 12:00:00,76.6,64.9,29.28,West,270,4.0,8.0,67,0.00,,,0.00,meteohub,2013-04-08 22:00:00,
2013-04-08 12:05:00,76.8,64.9,29.28,NW,315,6.0,8.0,67,0.00,,,0.00,meteohub,2013-04-08 22:05:00,
2013-04-08 12:10:00,77.5,64.8,29.27,NW,315,6.0,8.0,65,0.00,,,0.00,meteohub,2013-04-08 22:10:00,
2013-04-08 12:15:00,78.8,66.0,29.27,West,270,4.0,8.0,65,0.00,,,0.00,meteohub,2013-04-08 22:15:00,
2013-04-08 12:20:00,79.2,65.5,29.27,NW,315,4.0,8.0,63,0.00,,,0.00,meteohub,2013-04-08 22:20:00,
2013-04-08 12:25:00,78.1,65.3,29.27,SW,225,5.0,7.0,65,0.00,,,0.00,meteohub,2013-04-08 22:25:00,
2013-04-08 12:30:00,77.9,65.7,29.26,West,270,5.0,7.0,66,0.00,,,0.00,meteohub,2013-04-08 22:30:00,
2013-04-08 12:35:00,79.0,65.8,29.26,West,270,4.0,8.0,64,0.00,,,0.00,meteohub,2013-04-08 22:35:00,
2013-04-08 12:40:00,79.3,65.7,29.25,West,270,4.0,9.0,63,0.00,,,0.00,meteohub,2013-04-08 22:40:00,
2013-04-08 12:45:00,79.7,65.5,29.26,West,270,7.0,9.0,62,0.00,,,0.00,meteohub,2013-04-08 22:45:00,
2013-04-08 12:50:00,79.0,65.3,29.25,SW,225,10.0,10.0,63,0.00,,,0.00,meteohub,2013-04-08 22:50:00,
2013-04-08 12:55:00,77.9,65.7,29.25,West,270,5.0,10.0,66,0.00,,,0.00,meteohub,2013-04-08 22:55:00,
2013-04-08 13:00:00,77.2,64.9,29.24,West,270,6.0,10.0,66,0.00,,,0.00,meteohub,2013-04-08 23:00:00,
2013-04-08 13:05:00,77.4,65.1,29.24,West,270,8.0,10.0,66,0.00,,,0.00,meteohub,2013-04-08 23:05:00,
2013-04-08 13:10:00,77.7,65.5,29.24,West,270,7.0,11.0,66,0.00,,,0.00,meteohub,2013-04-08 23:10:00,
2013-04-08 13:15:00,78.1,64.9,29.24,West,270,9.0,11.0,64,0.00,,,0.00,meteohub,2013-04-08 23:15:00,
2013-04-08 13:20:00,79.2,65.8,29.24,SW,225,4.0,11.0,64,0.00,,,0.00,meteohub,2013-04-08 23:20:00,
2013-04-08 13:25:00,79.7,65.5,29.23,West,270,8.0,11.0,62,0.00,,,0.00,meteohub,2013-04-08 23:25:00,
2013-04-08 13:30:00,79.2,65.5,29.23,West,270,8.0,9.0,63,0.00,,,0.00,meteohub,2013-04-08 23:30:00,
2013-04-08 13:35:00,79.3,66.0,29.23,West,270,10.0,10.0,64,0.00,,,0.00,meteohub,2013-04-08 23:35:00,
2013-04-08 13:40:00,79.5,65.3,29.23,NW,315,8.0,11.0,62,0.00,,,0.00,meteohub,2013-04-08 23:40:00,
2013-04-08 13:45:00,80.1,65.5,29.22,West,270,5.0,11.0,61,0.00,,,0.00,meteohub,2013-04-08 23:45:00,
2013-04-08 13:50:00,80.4,64.8,29.22,West,270,6.0,11.0,59,0.00,,,0.00,meteohub,2013-04-08 23:50:00,
2013-04-08 13:55:00,81.0,65.3,29.22,West,270,6.0,8.0,59,0.00,,,0.00,meteohub,2013-04-08 23:55:00,
2013-04-08 14:00:00,80.4,66.2,29.21,West,270,4.0,11.0,62,0.00,,,0.00,meteohub,2013-04-09 00:00:00,
2013-04-08 14:05:00,78.8,65.1,29.22,West,270,4.0,11.0,63,0.00,,,0.00,meteohub,2013-04-09 00:05:00,
2013-04-08 14:11:00,77.5,64.8,29.22,West,270,4.0,8.0,65,0.00,,,0.00,meteohub,2013-04-09 00:11:00,
2013-04-08 14:16:00,76.8,64.9,29.22,NW,315,4.0,7.0,67,0.00,,,0.00,meteohub,2013-04-09 00:16:00,
2013-04-08 14:21:00,75.9,65.5,29.21,West,270,7.0,8.0,70,0.00,,,0.00,meteohub,2013-04-09 00:21:00,
2013-04-08 14:26:00,75.0,65.8,29.21,NW,315,5.0,8.0,73,0.00,,,0.00,meteohub,2013-04-09 00:26:00,
2013-04-08 14:31:00,74.1,65.7,29.21,NW,315,4.0,8.0,75,0.00,,,0.00,meteohub,2013-04-09 00:31:00,
2013-04-08 14:36:00,73.8,66.0,29.21,NW,315,4.0,8.0,77,0.00,,,0.00,meteohub,2013-04-09 00:36:00,
2013-04-08 14:41:00,73.6,65.8,29.21,SW,225,5.0,7.0,77,0.00,,,0.00,meteohub,2013-04-09 00:41:00,
2013-04-08 14:46:00,73.2,66.0,29.21,NW,315,3.0,7.0,78,0.00,,,0.00,meteohub,2013-04-09 00:46:00,
2013-04-08 14:51:00,73.0,65.8,29.21,West,270,5.0,8.0,78,0.00,,,0.00,meteohub,2013-04-09 00:51:00,
2013-04-08 14:56:00,72.7,66.2,29.21,NW,315,2.0,8.0,80,0.00,,,0.00,meteohub,2013-04-09 00:56:00,
2013-04-08 15:01:00,72.5,66.4,29.21,NW,315,3.0,8.0,81,0.00,,,0.00,meteohub,2013-04-09 01:01:00,
2013-04-08 15:06:00,72.3,66.6,29.21,SW,225,2.0,8.0,82,0.00,,,0.00,meteohub,2013-04-09 01:06:00,
2013-04-08 15:11:00,72.0,66.2,29.21,NW,315,5.0,5.0,82,0.00,,,0.00,meteohub,2013-04-09 01:11:00,
2013-04-08 15:16:00,71.6,66.2,29.21,West,270,2.0,5.0,83,0.00,,,0.00,meteohub,2013-04-09 01:16:00,
2013-04-08 15:21:00,71.4,66.4,29.20,West,270,3.0,5.0,84,0.00,,,0.00,meteohub,2013-04-09 01:21:00,
2013-04-08 15:26:00,71.2,65.8,29.20,NE,45,2.0,5.0,83,0.00,,,0.00,meteohub,2013-04-09 01:26:00,
2013-04-08 15:31:00,71.2,66.2,29.21,SW,225,3.0,6.0,84,0.00,,,0.00,meteohub,2013-04-09 01:31:00,
2013-04-08 15:36:00,71.2,66.6,29.21,West,270,2.0,6.0,85,0.00,,,0.00,meteohub,2013-04-09 01:36:00,
2013-04-08 15:41:00,71.2,66.2,29.20,West,270,4.0,6.0,84,0.00,,,0.00,meteohub,2013-04-09 01:41:00,
2013-04-08 15:46:00,71.2,65.8,29.21,NW,315,2.0,4.0,83,0.00,,,0.00,meteohub,2013-04-09 01:46:00,
2013-04-08 15:51:00,71.2,65.8,29.20,NW,315,2.0,5.0,83,0.00,,,0.00,meteohub,2013-04-09 01:51:00,
2013-04-08 15:56:00,71.4,66.0,29.21,NW,315,2.0,5.0,83,0.00,,,0.00,meteohub,2013-04-09 01:56:00,
2013-04-08 16:02:00,71.6,66.2,29.21,West,270,3.0,5.0,83,0.00,,,0.00,meteohub,2013-04-09 02:02:00,
2013-04-08 16:07:00,71.6,66.2,29.21,SW,225,2.0,3.0,83,0.00,,,0.00,meteohub,2013-04-09 02:07:00,
2013-04-08 16:12:00,71.4,66.0,29.21,West,270,4.0,4.0,83,0.00,,,0.00,meteohub,2013-04-09 02:12:00,
2013-04-08 16:17:00,71.4,66.0,29.21,West,270,3.0,4.0,83,0.00,,,0.00,meteohub,2013-04-09 02:17:00,
2013-04-08 16:22:00,71.4,66.7,29.21,NW,315,2.0,4.0,85,0.00,,,0.00,meteohub,2013-04-09 02:22:00,
2013-04-08 16:27:00,71.4,67.1,29.21,North,0,4.0,4.0,86,0.00,,,0.00,meteohub,2013-04-09 02:27:00,
2013-04-08 16:32:00,71.4,67.3,29.21,West,270,4.0,4.0,87,0.00,,,0.00,meteohub,2013-04-09 02:32:00,
2013-04-08 16:37:00,71.2,67.1,29.21,North,0,2.0,4.0,87,0.00,,,0.00,meteohub,2013-04-09 02:37:00,
2013-04-08 16:42:00,71.2,67.5,29.21,West,270,2.0,4.0,88,0.00,,,0.00,meteohub,2013-04-09 02:42:00,
2013-04-08 16:47:00,71.2,67.5,29.20,West,270,2.0,4.0,88,0.00,,,0.00,meteohub,2013-04-09 02:47:00,
2013-04-08 16:52:00,71.2,67.5,29.21,West,270,3.0,3.0,88,0.00,,,0.00,meteohub,2013-04-09 02:52:00,
2013-04-08 16:57:00,71.2,67.5,29.21,NW,315,2.0,4.0,88,0.00,,,0.00,meteohub,2013-04-09 02:57:00,
2013-04-08 17:02:00,71.2,67.5,29.21,West,270,2.0,4.0,88,0.00,,,0.00,meteohub,2013-04-09 03:02:00,
2013-04-08 17:07:00,71.2,67.5,29.21,NW,315,4.0,4.0,88,0.00,,,0.00,meteohub,2013-04-09 03:07:00,
2013-04-08 17:13:00,71.2,67.5,29.21,West,270,2.0,4.0,88,0.00,,,0.00,meteohub,2013-04-09 03:13:00,
2013-04-08 17:18:00,71.2,67.5,29.21,West,270,3.0,4.0,88,0.00,,,0.00,meteohub,2013-04-09 03:18:00,
2013-04-08 17:23:00,71.1,67.6,29.21,West,270,3.0,4.0,89,0.00,,,0.00,meteohub,2013-04-09 03:23:00,
2013-04-08 17:28:00,71.1,68.0,29.21,NW,315,2.0,3.0,90,0.00,,,0.00,meteohub,2013-04-09 03:28:00,
2013-04-08 17:33:00,71.1,68.4,29.21,North,0,2.0,3.0,91,0.00,,,0.00,meteohub,2013-04-09 03:33:00,
2013-04-08 17:38:00,71.1,68.4,29.21,West,270,4.0,4.0,91,0.00,,,0.00,meteohub,2013-04-09 03:38:00,
2013-04-08 17:43:00,71.1,68.4,29.21,North,0,2.0,4.0,91,0.00,,,0.00,meteohub,2013-04-09 03:43:00,
2013-04-08 17:48:00,71.1,68.4,29.21,North,0,2.0,4.0,91,0.00,,,0.00,meteohub,2013-04-09 03:48:00,
2013-04-08 17:53:00,71.1,68.5,29.21,West,270,2.0,4.0,92,0.00,,,0.00,meteohub,2013-04-09 03:53:00,
2013-04-08 17:58:00,71.1,68.9,29.21,West,270,2.0,4.0,93,0.00,,,0.00,meteohub,2013-04-09 03:58:00,
2013-04-08 18:00:00,70.9,68.7,29.22,NW,315,2.0,4.0,93,0.00,,,0.00,meteohub,2013-04-09 04:00:00,
2013-04-08 18:05:00,70.9,69.1,29.22,North,0,2.0,3.0,94,0.00,,,0.00,meteohub,2013-04-09 04:05:00,
2013-04-08 18:10:00,70.7,68.5,29.22,West,270,2.0,3.0,93,0.00,,,0.00,meteohub,2013-04-09 04:10:00,
2013-04-08 18:15:00,70.5,68.0,29.22,NW,315,2.0,3.0,92,0.00,,,0.00,meteohub,2013-04-09 04:15:00,
2013-04-08 18:20:00,70.5,68.0,29.22,South,180,2.0,3.0,92,0.00,,,0.00,meteohub,2013-04-09 04:20:00,
2013-04-08 18:25:00,70.3,67.6,29.22,NE,45,1.0,3.0,91,0.00,,,0.00,meteohub,2013-04-09 04:25:00,
2013-04-08 18:30:00,70.3,67.6,29.23,West,270,2.0,2.0,91,0.00,,,0.00,meteohub,2013-04-09 04:30:00,
2013-04-08 18:35:00,70.3,67.6,29.23,North,0,2.0,4.0,91,0.00,,,0.00,meteohub,2013-04-09 04:35:00,
2013-04-08 18:40:00,70.3,67.3,29.23,West,270,2.0,4.0,90,0.00,,,0.00,meteohub,2013-04-09 04:40:00,
2013-04-08 18:45:00,70.2,67.1,29.23,West,270,1.0,4.0,90,0.00,,,0.00,meteohub,2013-04-09 04:45:00,
2013-04-08 18:50:00,70.2,67.5,29.24,NW,315,2.0,3.0,91,0.00,,,0.00,meteohub,2013-04-09 04:50:00,
2013-04-08 18:55:00,70.0,67.8,29.24,West,270,2.0,3.0,93,0.00,,,0.00,meteohub,2013-04-09 04:55:00,
2013-04-08 19:01:00,69.8,68.0,29.24,North,0,1.0,3.0,94,0.00,,,0.00,meteohub,2013-04-09 05:01:00,
2013-04-08 19:06:00,69.8,68.4,29.24,NE,45,1.0,2.0,95,0.00,,,0.00,meteohub,2013-04-09 05:06:00,
2013-04-08 19:11:00,69.6,68.2,29.24,North,0,1.0,2.0,95,0.00,,,0.00,meteohub,2013-04-09 05:11:00,
2013-04-08 19:16:00,69.6,68.4,29.24,North,0,2.0,2.0,96,0.00,,,0.00,meteohub,2013-04-09 05:16:00,
2013-04-08 19:21:00,69.4,68.2,29.25,North,0,2.0,2.0,96,0.00,,,0.00,meteohub,2013-04-09 05:21:00,
2013-04-08 19:26:00,69.4,68.2,29.25,North,0,1.0,2.0,96,0.00,,,0.00,meteohub,2013-04-09 05:26:00,
2013-04-08 19:31:00,69.4,68.5,29.25,North,0,1.0,2.0,97,0.00,,,0.00,meteohub,2013-04-09 05:31:00,
2013-04-08 19:36:00,69.3,68.4,29.25,North,0,1.0,2.0,97,0.00,,,0.00,meteohub,2013-04-09 05:36:00,
2013-04-08 19:41:00,69.3,68.4,29.25,North,0,0.0,2.0,97,0.00,,,0.00,meteohub,2013-04-09 05:41:00,
2013-04-08 19:46:00,69.1,67.8,29.25,North,0,0.0,2.0,96,0.00,,,0.00,meteohub,2013-04-09 05:46:00,
2013-04-08 19:51:00,69.1,67.8,29.25,North,0,0.0,2.0,96,0.00,,,0.00,meteohub,2013-04-09 05:51:00,
2013-04-08 19:56:00,68.9,67.5,29.26,North,0,1.0,2.0,95,0.00,,,0.00,meteohub,2013-04-09 05:56:00,
2013-04-08 20:02:00,68.9,67.5,29.26,NW,315,1.0,1.0,95,0.00,,,0.00,meteohub,2013-04-09 06:02:00,
2013-04-08 20:07:00,68.9,67.1,29.26,West,270,0.0,2.0,94,0.00,,,0.00,meteohub,2013-04-09 06:07:00,
2013-04-08 20:12:00,68.9,66.7,29.27,West,270,0.0,2.0,93,0.00,,,0.00,meteohub,2013-04-09 06:12:00,
2013-04-08 20:17:00,68.9,66.7,29.27,NE,45,2.0,2.0,93,0.00,,,0.00,meteohub,2013-04-09 06:17:00,
2013-04-08 20:22:00,68.7,66.6,29.27,NE,45,1.0,2.0,93,0.00,,,0.00,meteohub,2013-04-09 06:22:00,
2013-04-08 20:27:00,68.7,66.6,29.27,NE,45,1.0,2.0,93,0.00,,,0.00,meteohub,2013-04-09 06:27:00,
2013-04-08 20:32:00,68.7,66.6,29.27,NE,45,1.0,2.0,93,0.00,,,0.00,meteohub,2013-04-09 06:32:00,
2013-04-08 20:37:00,68.5,66.4,29.27,NE,45,1.0,1.0,93,0.00,,,0.00,meteohub,2013-04-09 06:37:00,
2013-04-08 20:42:00,68.5,66.4,29.27,NE,45,1.0,1.0,93,0.00,,,0.00,meteohub,2013-04-09 06:42:00,
2013-04-08 20:47:00,68.4,66.0,29.28,NE,45,1.0,1.0,92,0.00,,,0.00,meteohub,2013-04-09 06:47:00,
2013-04-08 20:52:00,68.4,66.0,29.27,NE,45,1.0,1.0,92,0.00,,,0.00,meteohub,2013-04-09 06:52:00,
2013-04-08 20:57:00,68.4,65.7,29.27,NE,45,1.0,2.0,91,0.00,,,0.00,meteohub,2013-04-09 06:57:00,
2013-04-08 21:02:00,68.4,65.7,29.28,NE,45,0.0,2.0,91,0.00,,,0.00,meteohub,2013-04-09 07:02:00,
2013-04-08 21:07:00,68.4,65.7,29.29,NE,45,0.0,2.0,91,0.00,,,0.00,meteohub,2013-04-09 07:07:00,
2013-04-08 21:12:00,68.2,65.5,29.29,NE,45,1.0,1.0,91,0.00,,,0.00,meteohub,2013-04-09 07:12:00,
2013-04-08 21:17:00,68.2,65.5,29.29,NE,45,1.0,1.0,91,0.00,,,0.00,meteohub,2013-04-09 07:17:00,
2013-04-08 21:22:00,68.2,65.5,29.29,NE,45,0.0,1.0,91,0.00,,,0.00,meteohub,2013-04-09 07:22:00,
2013-04-08 21:27:00,68.0,65.3,29.30,NE,45,0.0,1.0,91,0.00,,,0.00,meteohub,2013-04-09 07:27:00,
2013-04-08 21:32:00,68.0,65.3,29.30,NE,45,0.0,1.0,91,0.00,,,0.00,meteohub,2013-04-09 07:32:00,
2013-04-08 21:37:00,68.0,65.3,29.30,NE,45,2.0,2.0,91,0.00,,,0.00,meteohub,2013-04-09 07:37:00,
2013-04-08 21:42:00,68.0,65.3,29.30,NE,45,2.0,2.0,91,0.00,,,0.00,meteohub,2013-04-09 07:42:00,
2013-04-08 21:47:00,68.0,65.3,29.30,NE,45,2.0,2.0,91,0.00,,,0.00,meteohub,2013-04-09 07:47:00,
2013-04-08 21:52:00,68.0,65.3,29.30,NE,45,2.0,2.0,91,0.00,,,0.00,meteohub,2013-04-09 07:52:00,
2013-04-08 21:57:00,67.8,65.1,29.30,NE,45,1.0,2.0,91,0.00,,,0.00,meteohub,2013-04-09 07:57:00,
2013-04-08 22:02:00,67.8,65.5,29.30,NE,45,2.0,2.0,92,0.00,,,0.00,meteohub,2013-04-09 08:02:00,
2013-04-08 22:07:00,67.8,65.5,29.30,NE,45,0.0,2.0,92,0.00,,,0.00,meteohub,2013-04-09 08:07:00,
2013-04-08 22:12:00,67.6,65.3,29.30,NE,45,1.0,2.0,92,0.00,,,0.00,meteohub,2013-04-09 08:12:00,
2013-04-08 22:18:00,67.5,65.1,29.30,NE,45,2.0,2.0,92,0.00,,,0.00,meteohub,2013-04-09 08:18:00,
2013-04-08 22:23:00,67.5,65.1,29.31,NE,45,1.0,2.0,92,0.00,,,0.00,meteohub,2013-04-09 08:23:00,
2013-04-08 22:28:00,67.5,65.3,29.31,NE,45,1.0,2.0,93,0.00,,,0.00,meteohub,2013-04-09 08:28:00,
2013-04-08 22:33:00,67.5,65.3,29.31,NE,45,0.0,2.0,93,0.00,,,0.00,meteohub,2013-04-09 08:33:00,
2013-04-08 22:38:00,67.3,65.1,29.31,NE,45,2.0,2.0,93,0.00,,,0.00,meteohub,2013-04-09 08:38:00,
2013-04-08 22:43:00,67.5,65.1,29.31,NE,45,2.0,2.0,92,0.00,,,0.00,meteohub,2013-04-09 08:43:00,
2013-04-08 22:48:00,67.3,64.9,29.31,NE,45,2.0,2.0,92,0.00,,,0.00,meteohub,2013-04-09 08:48:00,
2013-04-08 22:53:00,67.3,64.9,29.31,NE,45,2.0,2.0,92,0.00,,,0.00,meteohub,2013-04-09 08:53:00,
2013-04-08 22:58:00,67.1,64.4,29.30,NE,45,1.0,2.0,91,0.00,,,0.00,meteohub,2013-04-09 08:58:00,
2013-04-08 23:03:00,67.1,64.8,29.30,NE,45,2.0,2.0,92,0.00,,,0.00,meteohub,2013-04-09 09:03:00,
2013-04-08 23:08:00,66.9,64.6,29.31,NE,45,2.0,2.0,92,0.00,,,0.00,meteohub,2013-04-09 09:08:00,
2013-04-08 23:13:00,66.7,64.4,29.31,NE,45,2.0,2.0,92,0.00,,,0.00,meteohub,2013-04-09 09:13:00,
2013-04-08 23:18:00,66.6,64.2,29.31,NE,45,1.0,2.0,92,0.00,,,0.00,meteohub,2013-04-09 09:18:00,
2013-04-08 23:23:00,66.4,64.0,29.30,NE,45,1.0,2.0,92,0.00,,,0.00,meteohub,2013-04-09 09:23:00,
2013-04-08 23:28:00,66.2,63.9,29.31,NE,45,1.0,2.0,92,0.00,,,0.00,meteohub,2013-04-09 09:28:00,
2013-04-08 23:33:00,65.8,63.5,29.31,NE,45,0.0,2.0,92,0.00,,,0.00,meteohub,2013-04-09 09:33:00,
2013-04-08 23:38:00,65.7,63.5,29.31,NE,45,2.0,2.0,93,0.00,,,0.00,meteohub,2013-04-09 09:38:00,
2013-04-08 23:43:00,65.5,63.7,29.31,NE,45,1.0,2.0,94,0.00,,,0.00,meteohub,2013-04-09 09:43:00,
2013-04-08 23:48:00,65.5,63.7,29.31,NE,45,0.0,2.0,94,0.00,,,0.00,meteohub,2013-04-09 09:48:00,
2013-04-08 23:53:00,65.5,63.7,29.30,NE,45,0.0,2.0,94,0.00,,,0.00,meteohub,2013-04-09 09:53:00,
2013-04-08 23:58:00,65.3,63.9,29.30,NE,45,0.0,2.0,95,0.00,,,0.00,meteohub,2013-04-09 09:58:00,